TimeEDT,TemperatureF,Dew PointF,Humidity,Sea Level PressureIn,VisibilityMPH,Wind Direction,Wind SpeedMPH,Gust SpeedMPH,PrecipitationIn,Events,Conditions,WindDirDegrees,DateUTC
12:15 AM,67.3,66.2,96,29.98,4.0,Calm,Calm,-,N/A,,Clear,0,2013-10-05 04:15:00
12:35 AM,67.1,66.0,96,29.98,4.0,Calm,Calm,-,N/A,,Scattered Clouds,0,2013-10-05 04:35:00
12:54 AM,66.7,66.0,98,29.98,4.0,Calm,Calm,-,N/A,,Scattered Clouds,0,2013-10-05 04:54:00
1:15 AM,68.0,66.6,95,29.97,7.0,Calm,Calm,-,N/A,,Clear,0,2013-10-05 05:15:00
1:35 AM,68.0,66.4,95,29.97,7.0,Calm,Calm,-,N/A,,Scattered Clouds,0,2013-10-05 05:35:00
1:55 AM,67.6,66.0,95,29.97,7.0,Calm,Calm,-,N/A,,Scattered Clouds,0,2013-10-05 05:55:00
2:15 AM,66.7,65.5,96,29.97,7.0,Calm,Calm,-,N/A,,Clear,0,2013-10-05 06:15:00
2:35 AM,65.5,64.6,97,29.97,4.0,Calm,Calm,-,N/A,,Clear,0,2013-10-05 06:35:00
2:55 AM,64.6,64.0,98,29.97,5.0,Calm,Calm,-,N/A,,Clear,0,2013-10-05 06:55:00
3:15 AM,64.8,64.2,98,29.97,5.0,Calm,Calm,-,N/A,,Scattered Clouds,0,2013-10-05 07:15:00
3:35 AM,65.7,65.1,98,29.97,7.0,Calm,Calm,-,N/A,,Mostly Cloudy,0,2013-10-05 07:35:00
3:55 AM,68.0,66.9,96,29.97,7.0,Calm,Calm,-,N/A,,Mostly Cloudy,0,2013-10-05 07:55:00
4:14 AM,68.2,66.7,95,29.97,7.0,Calm,Calm,-,N/A,,Scattered Clouds,0,2013-10-05 08:14:00
4:35 AM,67.6,66.4,96,29.97,7.0,South,3.5,-,N/A,,Clear,190,2013-10-05 08:35:00
4:55 AM,68.0,66.6,95,29.97,7.0,Calm,Calm,-,N/A,,Clear,0,2013-10-05 08:55:00
5:15 AM,68.0,66.7,96,29.96,7.0,Calm,Calm,-,N/A,,Scattered Clouds,0,2013-10-05 09:15:00
5:35 AM,68.0,66.7,96,29.97,5.0,Calm,Calm,-,N/A,,Mostly Cloudy,0,2013-10-05 09:35:00
5:54 AM,67.3,66.4,97,29.97,4.0,Calm,Calm,-,N/A,,Scattered Clouds,0,2013-10-05 09:54:00
6:15 AM,67.1,66.4,98,29.97,4.0,Calm,Calm,-,N/A,,Clear,0,2013-10-05 10:15:00
6:35 AM,67.3,66.6,98,29.97,4.0,Calm,Calm,-,N/A,,Mostly Cloudy,0,2013-10-05 10:35:00
6:54 AM,67.3,66.6,98,29.97,4.0,Calm,Calm,-,N/A,,Mostly Cloudy,0,2013-10-05 10:54:00
7:15 AM,67.1,66.4,98,29.97,4.0,Calm,Calm,-,N/A,,Scattered Clouds,0,2013-10-05 11:15:00
7:35 AM,66.9,66.2,98,29.97,3.0,Calm,Calm,-,N/A,,Clear,0,2013-10-05 11:35:00
7:54 AM,67.1,66.4,98,29.96,2.5,Calm,Calm,-,N/A,,Clear,0,2013-10-05 11:54:00
8:15 AM,67.1,66.4,98,29.96,2.5,Calm,Calm,-,N/A,,Clear,0,2013-10-05 12:15:00
8:35 AM,67.3,66.6,98,29.96,2.5,Calm,Calm,-,N/A,,Clear,0,2013-10-05 12:35:00
8:55 AM,68.4,67.3,96,29.96,3.0,Calm,Calm,-,N/A,,Clear,0,2013-10-05 12:55:00
9:15 AM,69.1,67.6,95,29.96,4.0,SE,4.6,-,N/A,,Scattered Clouds,130,2013-10-05 13:15:00
9:35 AM,69.8,68.2,95,29.96,4.0,SE,5.8,-,N/A,,Mostly Cloudy,130,2013-10-05 13:35:00
9:55 AM,71.1,68.9,93,29.95,5.0,SE,5.8,-,N/A,,Mostly Cloudy,140,2013-10-05 13:55:00
10:15 AM,71.6,69.1,92,29.95,5.0,SSE,5.8,-,N/A,,Overcast,150,2013-10-05 14:15:00
10:35 AM,71.8,68.9,91,29.95,5.0,SSE,3.5,-,N/A,,Overcast,150,2013-10-05 14:35:00
10:55 AM,71.6,68.9,91,29.95,5.0,SSE,4.6,-,N/A,,Overcast,150,2013-10-05 14:55:00
11:14 AM,72.3,69.1,89,29.95,7.0,SSE,4.6,-,N/A,,Overcast,150,2013-10-05 15:14:00
11:35 AM,72.5,69.3,90,29.95,7.0,SE,5.8,-,N/A,,Overcast,140,2013-10-05 15:35:00
11:55 AM,72.7,69.3,89,29.95,7.0,SSE,4.6,-,N/A,,Overcast,150,2013-10-05 15:55:00
12:14 PM,72.5,69.3,90,29.95,7.0,SSE,5.8,-,N/A,,Overcast,150,2013-10-05 16:14:00
12:35 PM,72.9,69.3,88,29.95,7.0,SSE,5.8,-,N/A,,Overcast,160,2013-10-05 16:35:00
12:55 PM,73.0,69.6,89,29.94,7.0,South,3.5,-,N/A,,Overcast,170,2013-10-05 16:55:00
1:14 PM,72.9,69.3,88,29.94,7.0,Calm,Calm,-,N/A,,Overcast,0,2013-10-05 17:14:00
1:35 PM,71.6,69.4,93,29.94,3.0,WNW,6.9,-,N/A,Rain,Light Rain,300,2013-10-05 17:35:00
1:55 PM,70.9,69.4,95,29.92,4.0,Calm,Calm,-,N/A,,Light Drizzle,0,2013-10-05 17:55:00
2:15 PM,73.4,70.3,90,29.92,4.0,Calm,Calm,-,N/A,,Mostly Cloudy,0,2013-10-05 18:15:00
2:35 PM,72.1,67.3,85,29.91,10.0,SE,3.5,-,N/A,,Overcast,140,2013-10-05 18:35:00
2:55 PM,72.5,67.6,85,29.90,10.0,East,5.8,-,N/A,,Mostly Cloudy,100,2013-10-05 18:55:00
3:15 PM,73.2,67.3,82,29.89,10.0,ESE,6.9,-,N/A,,Mostly Cloudy,110,2013-10-05 19:15:00
3:35 PM,74.8,67.3,77,29.88,10.0,SE,5.8,-,N/A,,Scattered Clouds,140,2013-10-05 19:35:00
3:55 PM,76.5,68.7,77,29.86,10.0,SSE,8.1,-,N/A,,Clear,160,2013-10-05 19:55:00
4:15 PM,77.0,69.1,76,29.86,10.0,SSE,9.2,-,N/A,,Clear,160,2013-10-05 20:15:00
4:35 PM,77.2,69.6,77,29.85,10.0,SSE,8.1,-,N/A,,Clear,150,2013-10-05 20:35:00
4:55 PM,77.2,66.7,70,29.85,10.0,South,11.5,21.9,N/A,,Clear,170,2013-10-05 20:55:00
5:15 PM,75.4,64.9,70,29.83,10.0,SSE,10.4,-,N/A,,Clear,160,2013-10-05 21:15:00
5:35 PM,73.8,64.8,73,29.82,10.0,SE,4.6,-,N/A,,Clear,140,2013-10-05 21:35:00
5:55 PM,72.9,64.9,76,29.84,10.0,SE,6.9,-,N/A,,Clear,140,2013-10-05 21:55:00
6:15 PM,72.5,65.5,79,29.85,10.0,SSE,5.8,-,N/A,,Clear,160,2013-10-05 22:15:00
6:35 PM,71.6,66.2,83,29.85,10.0,South,6.9,-,N/A,,Clear,170,2013-10-05 22:35:00
6:55 PM,71.2,66.4,85,29.84,10.0,SSE,5.8,-,N/A,,Scattered Clouds,160,2013-10-05 22:55:00
7:15 PM,70.2,67.1,90,29.84,7.0,South,5.8,-,N/A,Rain,Rain,170,2013-10-05 23:15:00
7:34 PM,69.6,67.5,93,29.84,10.0,SSE,3.5,-,N/A,Rain,Light Rain,160,2013-10-05 23:34:00
7:55 PM,69.8,68.0,94,29.83,10.0,SE,5.8,-,N/A,,Scattered Clouds,140,2013-10-05 23:55:00
8:15 PM,70.0,68.2,94,29.83,10.0,SSE,3.5,-,N/A,,Overcast,150,2013-10-06 00:15:00
8:34 PM,69.8,68.5,96,29.82,7.0,SSE,3.5,-,N/A,Rain,Light Rain,160,2013-10-06 00:34:00
8:55 PM,70.0,68.7,96,29.83,7.0,Calm,Calm,-,N/A,Rain,Light Rain,0,2013-10-06 00:55:00
9:15 PM,69.8,68.9,97,29.85,7.0,South,5.8,-,N/A,Rain,Light Rain,190,2013-10-06 01:15:00
9:35 PM,70.3,68.9,95,29.85,7.0,South,11.5,-,N/A,Rain,Light Rain,190,2013-10-06 01:35:00
9:55 PM,69.8,67.5,92,29.85,10.0,SSW,5.8,-,N/A,Rain,Light Rain,200,2013-10-06 01:55:00
10:15 PM,68.9,66.9,93,29.83,10.0,South,6.9,-,N/A,,Light Drizzle,190,2013-10-06 02:15:00
10:35 PM,68.0,66.2,94,29.81,10.0,South,5.8,-,N/A,Rain,Light Rain,170,2013-10-06 02:35:00
10:55 PM,67.6,66.2,95,29.81,10.0,SSW,5.8,-,N/A,,Scattered Clouds,200,2013-10-06 02:55:00
11:15 PM,67.1,65.7,95,29.82,10.0,SSW,4.6,-,N/A,,Scattered Clouds,200,2013-10-06 03:15:00
11:35 PM,66.7,65.3,95,29.82,10.0,SSW,5.8,-,N/A,,Clear,200,2013-10-06 03:35:00
11:55 PM,66.6,65.3,96,29.81,10.0,SSW,5.8,-,N/A,,Mostly Cloudy,200,2013-10-06 03:55:00